Regional Weather Roundup
Issued by NWS

Home | Current Version | Previous Version | Text Only | Print | Product List | Glossary Off
Versions: 1 2 3 4 5 6 7 8 9 10 11 12 13 14 15 16 17 18 19 20 21 22 23 24 25 26 27 28 29 30 31 32 33 34 35 36 37 38 39 40 41 42 43 44 45 46 47 48 49 50

093
ASUS43 KLSX 282307
RWRMO

WEATHER SUMMARY FOR MISSOURI
NATIONAL WEATHER SERVICE SPRINGFIELD MO
600 PM CDT SUN AUG 28 2016

NOTE: "FAIR" INDICATES FEW OR NO CLOUDS BELOW 12,000 FEET WITH NO
       SIGNIFICANT WEATHER AND/OR OBSTRUCTIONS TO VISIBILITY.
       CURRENT SKY AND/OR WEATHER CONDITIONS ARE NOT AVAILABLE FOR
       CHILLICOTHE AND FARMINGTON.

MOZ001>031-035>038-043-044-053-054-290000-
...NORTHERN AND WESTERN MISSOURI...

CITY           SKY/WX    TMP DP  RH WIND       PRES   REMARKS
KANSAS CTY INT PTSUNNY   87  69  54 S7        30.07S HX  91
KANSAS C DTWN  MOSUNNY   88  70  55 E7        30.05S HX  93
LEE`S SUMMIT   SUNNY     88  71  57 E5        30.07F HX  94
ST JOSEPH      PTSUNNY   80  69  69 NE6       30.09R
KIRKSVILLE     CLOUDY    81  68  64 SE9       30.11S

$$
MOZ066>068-077>081-088>096-101>105-290000-
...SOUTHWEST MISSOURI...

CITY           SKY/WX    TMP DP  RH WIND       PRES   REMARKS
SPRINGFIELD    SUNNY     89  65  44 E10       30.07S HX  91
JOPLIN         SUNNY     89  66  46 S7        30.05S HX  91
BRANSON        PTSUNNY   86  72  62 E3        30.09S HX  92

$$
MOZ032>034-039>042-045>050-055>058-069>072-290000-
...CENTRAL MISSOURI...

CITY           SKY/WX    TMP DP  RH WIND       PRES   REMARKS
COLUMBIA       SUNNY     88  72  58 SE7       30.08F HX  94
JEFFERSON CITY SUNNY     89  70  53 SE7       30.05F HX  94
ROLLA          SUNNY     87  70  56 E7        30.09F HX  92
SEDALIA        CLOUDY    87  75  67 CALM      30.08F HX  96
WHITEMAN AFB   SUNNY     87  74  64 SE7       30.06S HX  94
OSAGE BEACH    SUNNY     88  71  57 SE3       30.08F HX  94

$$
MOZ051-052-059>065-290000-
...EAST CENTRAL MISSOURI...

CITY           SKY/WX    TMP DP  RH WIND       PRES   REMARKS
ST LOUIS INTL  MOSUNNY   93  66  40 SE8       30.08S HX  96
SPIRIT OF STL  MOSUNNY   91  70  49 SE5       30.06S HX  96
ST CHARLES     PTSUNNY   88  75  65 E7        30.06S HX  97

$$
MOZ072>076-082>087-097>100-106>115-290000-
...SOUTH CENTRAL AND SOUTHEAST MISSOURI...

CITY           SKY/WX    TMP DP  RH WIND       PRES   REMARKS
CAPE GIRARDEAU SUNNY     91  72  53 E6        30.05S HX  98
FARMINGTON     MOSUNNY   88  73  61 E8        30.09F HX  95
POPLAR BLUFF   SUNNY     90  75  61 E5        30.04S HX 100
WEST PLAINS    SUNNY     87  69  54 E6        30.10S HX  91

$$



USA.gov is the U.S. government's official web portal to all federal, state and local government web resources and services.